| time (UTC) | temp C | wind direction | speed KPH | gust KPH | rain 1hr cm | rain 24hr cm | rain mn cm | humidity % | barometer mb |
| 20260510214403 | 25 | 88 | 0.0 | 3.2 | 0.00 | 0.00 | 0.00 | 70 | 1015.7 |
| 20260510214004 | 25 | 91 | 0.0 | 4.8 | 0.00 | 0.00 | 0.00 | 69 | 1015.7 |
| 20260510213603 | 25 | 93 | 1.6 | 4.8 | 0.00 | 0.00 | 0.00 | 70 | 1015.7 |
| 20260510213203 | 25 | 96 | 1.6 | 4.8 | 0.00 | 0.00 | 0.00 | 67 | 1015.9 |
| 20260510212803 | 25 | 98 | 1.6 | 3.2 | 0.00 | 0.00 | 0.00 | 66 | 1015.9 |
| 20260510212403 | 25 | 100 | 1.6 | 3.2 | 0.00 | 0.00 | 0.00 | 66 | 1015.8 |
| 20260510212004 | 25 | 100 | 1.6 | 4.8 | 0.00 | 0.00 | 0.00 | 65 | 1015.7 |
| 20260510211603 | 25 | 100 | 1.6 | 4.8 | 0.00 | 0.00 | 0.00 | 66 | 1015.7 |
| 20260510211203 | 25 | 99 | 1.6 | 4.8 | 0.00 | 0.00 | 0.00 | 66 | 1015.7 |
| 20260510210824 | 25 | 100 | 1.6 | 4.8 | 0.00 | 0.00 | 0.00 | 64 | 1015.7 |
| 20260510210424 | 25 | 102 | 1.6 | 4.8 | 0.00 | 0.00 | 0.00 | 69 | 1015.7 |
| 20260510210003 | 25 | 109 | 1.6 | 6.4 | 0.00 | 0.00 | 0.00 | 67 | 1015.8 |
| 20260510205603 | 25 | 126 | 1.6 | 6.4 | 0.00 | 0.00 | 0.00 | 68 | 1015.8 |
| 20260510205203 | 25 | 158 | 1.6 | 6.4 | 0.00 | 0.00 | 0.00 | 69 | 1015.7 |
| 20260510204803 | 25 | 219 | 1.6 | 3.2 | 0.00 | 0.00 | 0.00 | 69 | 1015.7 |
| 20260510204403 | 25 | 218 | 1.6 | 3.2 | 0.00 | 0.00 | 0.00 | 66 | 1015.8 |
| 20260510204003 | 25 | 218 | 1.6 | 3.2 | 0.00 | 0.00 | 0.00 | 65 | 1015.7 |
| 20260510203603 | 25 | 220 | 1.6 | 3.2 | 0.00 | 0.00 | 0.00 | 65 | 1015.7 |
| 20260510203224 | 25 | 222 | 1.6 | 3.2 | 0.00 | 0.00 | 0.00 | 66 | 1015.8 |
| 20260510202803 | 25 | 222 | 1.6 | 3.2 | 0.00 | 0.00 | 0.00 | 70 | 1015.9 |
| 20260510202424 | 25 | 221 | 1.6 | 3.2 | 0.00 | 0.00 | 0.00 | 64 | 1016.0 |
| 20260510202003 | 25 | 218 | 0.0 | 3.2 | 0.00 | 0.00 | 0.00 | 70 | 1016.0 |
| 20260510201603 | 25 | 216 | 1.6 | 3.2 | 0.00 | 0.00 | 0.00 | 73 | 1016.0 |
| 20260510201203 | 25 | 215 | 1.6 | 4.8 | 0.00 | 0.00 | 0.00 | 66 | 1016.0 |
| 20260510200803 | 25 | 196 | 1.6 | 6.4 | 0.00 | 0.00 | 0.00 | 69 | 1016.0 |
| 20260510200403 | 24 | 57 | 1.6 | 6.4 | 0.00 | 0.00 | 0.00 | 69 | 1016.0 |
| 20260510200003 | 24 | 50 | 1.6 | 3.2 | 0.00 | 0.00 | 0.00 | 70 | 1016.0 |
| 20260510195603 | 25 | 53 | 1.6 | 6.4 | 0.00 | 0.00 | 0.00 | 68 | 1016.1 |
| 20260510195203 | 24 | 55 | 1.6 | 6.4 | 0.00 | 0.00 | 0.00 | 64 | 1016.1 |
| 20260510194803 | 25 | 56 | 1.6 | 4.8 | 0.00 | 0.00 | 0.00 | 66 | 1016.1 |
| 20260510194424 | 25 | 56 | 1.6 | 6.4 | 0.00 | 0.00 | 0.00 | 70 | 1016.1 |
| 20260510194024 | 25 | 62 | 1.6 | 6.4 | 0.00 | 0.00 | 0.00 | 67 | 1016.2 |
| 20260510193603 | 25 | 77 | 1.6 | 6.4 | 0.00 | 0.00 | 0.00 | 69 | 1016.1 |
| 20260510193203 | 24 | 76 | 1.6 | 4.8 | 0.00 | 0.00 | 0.00 | 70 | 1016.1 |
| 20260510192824 | 24 | 52 | 1.6 | 3.2 | 0.00 | 0.00 | 0.00 | 73 | 1016.1 |
| 20260510192403 | 23 | 40 | 1.6 | 3.2 | 0.00 | 0.00 | 0.00 | 73 | 1016.2 |
| 20260510192024 | 23 | 39 | 1.6 | 3.2 | 0.00 | 0.00 | 0.00 | 73 | 1016.3 |
| 20260510191603 | 23 | 38 | 1.6 | 3.2 | 0.00 | 0.00 | 0.00 | 69 | 1016.3 |
| 20260510191203 | 24 | 42 | 1.6 | 4.8 | 0.00 | 0.00 | 0.00 | 68 | 1016.3 |
| 20260510190803 | 24 | 53 | 1.6 | 4.8 | 0.00 | 0.00 | 0.00 | 73 | 1016.3 |
| 20260510190403 | 24 | 77 | 1.6 | 4.8 | 0.00 | 0.00 | 0.00 | 72 | 1016.3 |
| 20260510190003 | 24 | 80 | 1.6 | 3.2 | 0.00 | 0.00 | 0.00 | 76 | 1016.3 |
| 20260510185603 | 23 | 63 | 1.6 | 6.4 | 0.00 | 0.00 | 0.00 | 79 | 1016.4 |
| 20260510185203 | 23 | 45 | 1.6 | 6.4 | 0.00 | 0.00 | 0.00 | 77 | 1016.5 |
| 20260510184803 | 23 | 40 | 3.2 | 8.0 | 0.00 | 0.00 | 0.00 | 76 | 1016.6 |
| 20260510184403 | 23 | 30 | 1.6 | 8.0 | 0.00 | 0.00 | 0.00 | 74 | 1016.6 |
| 20260510184003 | 23 | 23 | 1.6 | 3.2 | 0.00 | 0.00 | 0.00 | 77 | 1016.7 |
| 20260510183603 | 23 | 51 | 1.6 | 3.2 | 0.00 | 0.00 | 0.00 | 74 | 1016.8 |
| 20260510183203 | 23 | 90 | 1.6 | 3.2 | 0.00 | 0.00 | 0.00 | 76 | 1016.8 |
| 20260510182803 | 23 | 109 | 1.6 | 3.2 | 0.00 | 0.00 | 0.00 | 77 | 1016.8 |
| 20260510182424 | 22 | 107 | 1.6 | 6.4 | 0.00 | 0.00 | 0.00 | 81 | 1016.8 |
| 20260510182003 | 22 | 100 | 1.6 | 6.4 | 0.00 | 0.00 | 0.00 | 80 | 1016.8 |
| 20260510181603 | 22 | 89 | 1.6 | 6.4 | 0.00 | 0.00 | 0.00 | 81 | 1016.8 |
| 20260510181203 | 22 | 80 | 1.6 | 4.8 | 0.00 | 0.00 | 0.00 | 82 | 1016.8 |
| 20260510180824 | 22 | 72 | 0.0 | 3.2 | 0.00 | 0.00 | 0.00 | 82 | 1016.9 |
| 20260510180403 | 21 | 72 | 1.6 | 3.2 | 0.00 | 0.00 | 0.00 | 82 | 1017.0 |
| 20260510180003 | 21 | 72 | 1.6 | 4.8 | 0.00 | 0.00 | 0.00 | 85 | 1017.0 |
| 20260510175603 | 21 | 72 | 1.6 | 4.8 | 0.00 | 0.00 | 0.00 | 85 | 1017.0 |
| 20260510175203 | 21 | 71 | 0.0 | 4.8 | 0.00 | 0.00 | 0.00 | 85 | 1017.1 |
| 20260510174803 | 21 | 60 | 1.6 | 4.8 | 0.00 | 0.00 | 0.00 | 86 | 1017.1 |
| 20260510174403 | 21 | 59 | 1.6 | 4.8 | 0.00 | 0.00 | 0.00 | 84 | 1017.2 |
| 20260510174003 | 21 | 57 | 0.0 | 4.8 | 0.00 | 0.00 | 0.00 | 88 | 1017.3 |
| 20260510173603 | 21 | 57 | 0.0 | 4.8 | 0.00 | 0.00 | 0.00 | 88 | 1017.3 |
| 20260510173224 | 20 | 57 | 0.0 | 4.8 | 0.00 | 0.00 | 0.00 | 87 | 1017.4 |
| 20260510172803 | 20 | 57 | 0.0 | 1.6 | 0.00 | 0.00 | 0.00 | 87 | 1017.4 |
| 20260510172403 | 20 | 0 | 0.0 | 0.0 | 0.00 | 0.00 | 0.00 | 88 | 1017.5 |
| 20260510172003 | 20 | 0 | 0.0 | 1.6 | 0.00 | 0.00 | 0.00 | 87 | 1017.5 |
| 20260510171603 | 20 | 0 | 0.0 | 1.6 | 0.00 | 0.00 | 0.00 | 85 | 1017.5 |
| 20260510171203 | 20 | 0 | 0.0 | 1.6 | 0.00 | 0.00 | 0.00 | 85 | 1017.5 |
| 20260510170803 | 20 | 57 | 0.0 | 1.6 | 0.00 | 0.00 | 0.00 | 87 | 1017.6 |
| 20260510170403 | 20 | 57 | 0.0 | 1.6 | 0.00 | 0.00 | 0.00 | 87 | 1017.7 |
| 20260510170003 | 20 | 57 | 0.0 | 1.6 | 0.00 | 0.00 | 0.00 | 89 | 1017.7 |
| 20260510165603 | 20 | 57 | 0.0 | 1.6 | 0.00 | 0.00 | 0.00 | 88 | 1017.7 |
| 20260510165203 | 20 | 57 | 0.0 | 1.6 | 0.00 | 0.00 | 0.00 | 87 | 1017.7 |
| 20260510164803 | 20 | 57 | 0.0 | 1.6 | 0.00 | 0.00 | 0.00 | 88 | 1017.8 |
| 20260510164403 | 20 | 57 | 0.0 | 1.6 | 0.00 | 0.00 | 0.00 | 88 | 1017.8 |
| 20260510164003 | 20 | 57 | 0.0 | 1.6 | 0.00 | 0.00 | 0.00 | 89 | 1017.7 |
| 20260510163603 | 20 | 57 | 0.0 | 1.6 | 0.00 | 0.00 | 0.00 | 88 | 1017.6 |
| 20260510163203 | 20 | 57 | 0.0 | 4.8 | 0.00 | 0.00 | 0.00 | 88 | 1017.7 |
| 20260510162803 | 20 | 57 | 0.0 | 4.8 | 0.00 | 0.00 | 0.00 | 88 | 1017.6 |
| 20260510162403 | 20 | 57 | 0.0 | 4.8 | 0.00 | 0.00 | 0.00 | 90 | 1017.6 |
| 20260510162003 | 20 | 57 | 0.0 | 1.6 | 0.00 | 0.00 | 0.00 | 89 | 1017.6 |
| 20260510161603 | 19 | 57 | 0.0 | 1.6 | 0.00 | 0.00 | 0.00 | 90 | 1017.5 |
| 20260510161203 | 19 | 0 | 0.0 | 0.0 | 0.00 | 0.00 | 0.00 | 91 | 1017.6 |
| 20260510160803 | 19 | 0 | 0.0 | 0.0 | 0.00 | 0.00 | 0.00 | 90 | 1017.6 |
| 20260510160403 | 19 | 0 | 0.0 | 0.0 | 0.00 | 0.00 | 0.00 | 90 | 1017.7 |
| 20260510160003 | 19 | 0 | 0.0 | 0.0 | 0.00 | 0.00 | 0.00 | 90 | 1017.6 |
| 20260510155624 | 19 | 0 | 0.0 | 0.0 | 0.00 | 0.00 | 0.00 | 91 | 1017.6 |
| 20260510155203 | 19 | 0 | 0.0 | 0.0 | 0.00 | 0.00 | 0.00 | 91 | 1017.7 |
| 20260510154803 | 19 | 0 | 0.0 | 0.0 | 0.00 | 0.00 | 0.00 | 91 | 1017.7 |
| 20260510154424 | 19 | 0 | 0.0 | 0.0 | 0.00 | 0.00 | 0.00 | 91 | 1017.7 |
| 20260510154003 | 18 | 0 | 0.0 | 0.0 | 0.00 | 0.00 | 0.00 | 91 | 1017.7 |
| 20260510153603 | 19 | 0 | 0.0 | 0.0 | 0.00 | 0.00 | 0.00 | 91 | 1017.7 |
| 20260510153204 | 19 | 0 | 0.0 | 0.0 | 0.00 | 0.00 | 0.00 | 92 | 1017.6 |
| 20260510152803 | 18 | 0 | 0.0 | 0.0 | 0.00 | 0.00 | 0.00 | 91 | 1017.6 |
| 20260510152404 | 18 | 0 | 0.0 | 0.0 | 0.00 | 0.00 | 0.00 | 92 | 1017.7 |
| 20260510152003 | 18 | 0 | 0.0 | 1.6 | 0.00 | 0.00 | 0.00 | 92 | 1017.7 |
| 20260510151603 | 18 | 0 | 0.0 | 1.6 | 0.00 | 0.00 | 0.00 | 93 | 1017.7 |
| 20260510151203 | 18 | 0 | 0.0 | 1.6 | 0.00 | 0.00 | 0.00 | 93 | 1017.7 |
| 20260510150803 | 18 | 0 | 0.0 | 0.0 | 0.00 | 0.00 | 0.00 | 93 | 1017.6 |
| 20260510150403 | 18 | 0 | 0.0 | 0.0 | 0.00 | 0.00 | 0.00 | 93 | 1017.6 |
| 20260510150003 | 18 | 0 | 0.0 | 0.0 | 0.00 | 0.00 | 0.00 | 93 | 1017.6 |
| 20260510145603 | 18 | 0 | 0.0 | 0.0 | 0.00 | 0.00 | 0.00 | 93 | 1017.6 |
| 20260510145224 | 18 | 0 | 0.0 | 0.0 | 0.00 | 0.00 | 0.00 | 93 | 1017.6 |
| 20260510144803 | 18 | 0 | 0.0 | 0.0 | 0.00 | 0.00 | 0.00 | 94 | 1017.6 |
| 20260510144403 | 18 | 0 | 0.0 | 0.0 | 0.00 | 0.00 | 0.00 | 94 | 1017.6 |
| 20260510144003 | 18 | 0 | 0.0 | 0.0 | 0.00 | 0.00 | 0.00 | 94 | 1017.6 |
| 20260510143603 | 18 | 0 | 0.0 | 0.0 | 0.00 | 0.00 | 0.00 | 94 | 1017.6 |
| 20260510143203 | 18 | 0 | 0.0 | 0.0 | 0.00 | 0.00 | 0.00 | 93 | 1017.6 |
| 20260510142803 | 18 | 0 | 0.0 | 0.0 | 0.00 | 0.00 | 0.00 | 94 | 1017.6 |
| 20260510142403 | 18 | 0 | 0.0 | 1.6 | 0.00 | 0.00 | 0.00 | 94 | 1017.6 |
| 20260510142003 | 18 | 351 | 0.0 | 4.8 | 0.00 | 0.00 | 0.00 | 94 | 1017.5 |
| 20260510141624 | 18 | 351 | 0.0 | 4.8 | 0.00 | 0.00 | 0.00 | 94 | 1017.6 |
| 20260510141203 | 18 | 351 | 0.0 | 4.8 | 0.00 | 0.00 | 0.00 | 95 | 1017.6 |
| 20260510140803 | 18 | 0 | 0.0 | 0.0 | 0.00 | 0.00 | 0.00 | 95 | 1017.4 |
| 20260510140403 | 18 | 0 | 0.0 | 0.0 | 0.00 | 0.00 | 0.00 | 94 | 1017.4 |
| 20260510140024 | 17 | 0 | 0.0 | 0.0 | 0.00 | 0.00 | 0.00 | 95 | 1017.5 |
| 20260510135624 | 18 | 0 | 0.0 | 0.0 | 0.00 | 0.00 | 0.00 | 95 | 1017.4 |
| 20260510135203 | 18 | 0 | 0.0 | 0.0 | 0.00 | 0.00 | 0.00 | 95 | 1017.4 |
| 20260510134803 | 17 | 0 | 0.0 | 0.0 | 0.00 | 0.00 | 0.00 | 95 | 1017.4 |
| 20260510134403 | 17 | 0 | 0.0 | 0.0 | 0.00 | 0.00 | 0.00 | 95 | 1017.5 |
| 20260510134003 | 17 | 0 | 0.0 | 0.0 | 0.00 | 0.00 | 0.00 | 95 | 1017.4 |
| 20260510133603 | 17 | 0 | 0.0 | 0.0 | 0.00 | 0.00 | 0.00 | 95 | 1017.3 |
| 20260510133203 | 17 | 0 | 0.0 | 0.0 | 0.00 | 0.00 | 0.00 | 96 | 1017.3 |
| 20260510132803 | 17 | 0 | 0.0 | 0.0 | 0.00 | 0.00 | 0.00 | 96 | 1017.3 |
| 20260510132403 | 17 | 0 | 0.0 | 0.0 | 0.00 | 0.00 | 0.00 | 95 | 1017.3 |
| 20260510132003 | 17 | 0 | 0.0 | 0.0 | 0.00 | 0.00 | 0.00 | 96 | 1017.2 |
| 20260510131603 | 17 | 0 | 0.0 | 0.0 | 0.00 | 0.00 | 0.00 | 96 | 1017.1 |
| 20260510131203 | 17 | 0 | 0.0 | 0.0 | 0.00 | 0.00 | 0.00 | 96 | 1017.0 |
| 20260510130803 | 17 | 0 | 0.0 | 0.0 | 0.00 | 0.00 | 0.00 | 96 | 1017.0 |
| 20260510130403 | 17 | 0 | 0.0 | 0.0 | 0.00 | 0.00 | 0.00 | 96 | 1017.0 |
| 20260510130003 | 17 | 0 | 0.0 | 0.0 | 0.00 | 0.00 | 0.00 | 96 | 1017.1 |
| 20260510125603 | 17 | 0 | 0.0 | 0.0 | 0.00 | 0.00 | 0.00 | 96 | 1017.1 |
| 20260510125203 | 17 | 0 | 0.0 | 0.0 | 0.00 | 0.00 | 0.00 | 96 | 1017.0 |
| 20260510124803 | 17 | 0 | 0.0 | 0.0 | 0.00 | 0.00 | 0.00 | 96 | 1017.0 |
| 20260510124403 | 17 | 0 | 0.0 | 0.0 | 0.00 | 0.00 | 0.00 | 96 | 1016.9 |
| 20260510124003 | 17 | 0 | 0.0 | 0.0 | 0.00 | 0.00 | 0.00 | 96 | 1016.8 |
| 20260510123603 | 17 | 0 | 0.0 | 0.0 | 0.00 | 0.00 | 0.00 | 96 | 1016.8 |
| 20260510123203 | 17 | 0 | 0.0 | 0.0 | 0.00 | 0.00 | 0.00 | 96 | 1016.6 |
| 20260510122803 | 17 | 0 | 0.0 | 0.0 | 0.00 | 0.00 | 0.00 | 96 | 1016.6 |
| 20260510122403 | 17 | 0 | 0.0 | 0.0 | 0.00 | 0.00 | 0.00 | 96 | 1016.6 |
| 20260510122003 | 17 | 0 | 0.0 | 0.0 | 0.00 | 0.00 | 0.00 | 96 | 1016.6 |
| 20260510121603 | 17 | 0 | 0.0 | 0.0 | 0.00 | 0.00 | 0.00 | 96 | 1016.5 |
| 20260510121224 | 17 | 0 | 0.0 | 0.0 | 0.00 | 0.00 | 0.00 | 96 | 1016.5 |
| 20260510120803 | 17 | 0 | 0.0 | 0.0 | 0.00 | 0.00 | 0.00 | 96 | 1016.4 |
| 20260510120403 | 17 | 0 | 0.0 | 0.0 | 0.00 | 0.00 | 0.00 | 96 | 1016.4 |
| 20260510120003 | 17 | 0 | 0.0 | 0.0 | 0.00 | 0.00 | 0.00 | 96 | 1016.4 |
| 20260510115603 | 17 | 0 | 0.0 | 0.0 | 0.00 | 0.00 | 0.00 | 96 | 1016.3 |
| 20260510115224 | 17 | 0 | 0.0 | 0.0 | 0.00 | 0.00 | 0.00 | 96 | 1016.3 |
| 20260510114803 | 17 | 0 | 0.0 | 0.0 | 0.00 | 0.00 | 0.00 | 96 | 1016.2 |
| 20260510114403 | 17 | 0 | 0.0 | 0.0 | 0.00 | 0.00 | 0.00 | 96 | 1016.1 |
| 20260510114003 | 17 | 0 | 0.0 | 0.0 | 0.00 | 0.00 | 0.00 | 96 | 1016.1 |
| 20260510113624 | 17 | 0 | 0.0 | 0.0 | 0.00 | 0.00 | 0.00 | 96 | 1015.9 |
| 20260510113203 | 17 | 0 | 0.0 | 0.0 | 0.00 | 0.00 | 0.00 | 96 | 1015.8 |
| 20260510112803 | 17 | 0 | 0.0 | 0.0 | 0.00 | 0.00 | 0.00 | 96 | 1015.7 |
| 20260510112403 | 17 | 0 | 0.0 | 0.0 | 0.00 | 0.00 | 0.00 | 96 | 1015.6 |
| 20260510112003 | 17 | 0 | 0.0 | 0.0 | 0.00 | 0.00 | 0.00 | 96 | 1015.5 |
| 20260510111603 | 17 | 0 | 0.0 | 0.0 | 0.00 | 0.00 | 0.00 | 96 | 1015.5 |
| 20260510111203 | 17 | 0 | 0.0 | 0.0 | 0.00 | 0.00 | 0.00 | 96 | 1015.3 |
| 20260510110803 | 17 | 0 | 0.0 | 0.0 | 0.00 | 0.00 | 0.00 | 96 | 1015.2 |
| 20260510110403 | 17 | 0 | 0.0 | 0.0 | 0.00 | 0.00 | 0.00 | 96 | 1015.2 |
| 20260510110003 | 17 | 0 | 0.0 | 0.0 | 0.00 | 0.00 | 0.00 | 96 | 1015.0 |
| 20260510105603 | 17 | 0 | 0.0 | 0.0 | 0.00 | 0.00 | 0.00 | 96 | 1015.0 |
| 20260510105203 | 17 | 0 | 0.0 | 0.0 | 0.00 | 0.00 | 0.00 | 96 | 1014.9 |
| 20260510104824 | 17 | 0 | 0.0 | 0.0 | 0.00 | 0.00 | 0.00 | 96 | 1014.8 |
| 20260510104403 | 17 | 0 | 0.0 | 0.0 | 0.00 | 0.00 | 0.00 | 96 | 1014.7 |
| 20260510104003 | 17 | 0 | 0.0 | 0.0 | 0.00 | 0.00 | 0.00 | 96 | 1014.7 |
| 20260510103603 | 17 | 0 | 0.0 | 0.0 | 0.00 | 0.00 | 0.00 | 96 | 1014.6 |
| 20260510103203 | 17 | 0 | 0.0 | 0.0 | 0.00 | 0.00 | 0.00 | 96 | 1014.6 |
| 20260510102803 | 17 | 0 | 0.0 | 0.0 | 0.00 | 0.00 | 0.00 | 96 | 1014.6 |
| 20260510102424 | 17 | 0 | 0.0 | 0.0 | 0.00 | 0.00 | 0.00 | 96 | 1014.5 |
| 20260510102003 | 17 | 0 | 0.0 | 0.0 | 0.00 | 0.00 | 0.00 | 96 | 1014.5 |
| 20260510101603 | 17 | 0 | 0.0 | 0.0 | 0.00 | 0.00 | 0.00 | 96 | 1014.5 |
| 20260510101203 | 17 | 0 | 0.0 | 0.0 | 0.00 | 0.00 | 0.00 | 96 | 1014.5 |
| 20260510100803 | 17 | 351 | 0.0 | 3.2 | 0.00 | 0.00 | 0.00 | 96 | 1014.4 |
| 20260510100404 | 17 | 351 | 0.0 | 3.2 | 0.00 | 0.00 | 0.00 | 96 | 1014.4 |
| 20260510100004 | 17 | 351 | 0.0 | 3.2 | 0.00 | 0.00 | 0.00 | 96 | 1014.3 |
| 20260510095603 | 17 | 0 | 0.0 | 0.0 | 0.00 | 0.00 | 0.00 | 96 | 1014.2 |
| 20260510095203 | 17 | 0 | 0.0 | 0.0 | 0.00 | 0.00 | 0.00 | 96 | 1014.1 |
| 20260510094803 | 17 | 0 | 0.0 | 0.0 | 0.00 | 0.00 | 0.00 | 96 | 1014.1 |
| 20260510094403 | 17 | 0 | 0.0 | 0.0 | 0.00 | 0.00 | 0.00 | 96 | 1014.1 |
| 20260510094003 | 17 | 0 | 0.0 | 0.0 | 0.00 | 0.00 | 0.00 | 96 | 1014.0 |
| 20260510093603 | 17 | 0 | 0.0 | 0.0 | 0.00 | 0.00 | 0.00 | 96 | 1013.9 |
| 20260510093203 | 17 | 0 | 0.0 | 0.0 | 0.00 | 0.00 | 0.00 | 96 | 1013.9 |
| 20260510092824 | 17 | 0 | 0.0 | 0.0 | 0.00 | 0.00 | 0.00 | 96 | 1013.9 |
| 20260510092403 | 17 | 0 | 0.0 | 0.0 | 0.00 | 0.00 | 0.00 | 96 | 1013.7 |
| 20260510092024 | 17 | 0 | 0.0 | 0.0 | 0.00 | 0.00 | 0.00 | 96 | 1013.7 |
| 20260510091624 | 17 | 0 | 0.0 | 0.0 | 0.00 | 0.00 | 0.00 | 96 | 1013.8 |
| 20260510091203 | 17 | 0 | 0.0 | 0.0 | 0.00 | 0.00 | 0.00 | 96 | 1013.7 |
| 20260510090824 | 17 | 0 | 0.0 | 0.0 | 0.00 | 0.00 | 0.00 | 96 | 1013.6 |
| 20260510090403 | 17 | 0 | 0.0 | 0.0 | 0.00 | 0.00 | 0.00 | 96 | 1013.5 |
| 20260510090003 | 17 | 0 | 0.0 | 0.0 | 0.00 | 0.00 | 0.00 | 96 | 1013.5 |
| 20260510085603 | 17 | 0 | 0.0 | 0.0 | 0.00 | 0.00 | 0.00 | 96 | 1013.4 |
| 20260510085224 | 17 | 0 | 0.0 | 0.0 | 0.00 | 0.00 | 0.00 | 96 | 1013.4 |
| 20260510084803 | 17 | 0 | 0.0 | 0.0 | 0.00 | 0.00 | 0.00 | 96 | 1013.4 |
| 20260510084403 | 17 | 0 | 0.0 | 0.0 | 0.00 | 0.00 | 0.00 | 96 | 1013.2 |
| 20260510084003 | 17 | 0 | 0.0 | 0.0 | 0.00 | 0.00 | 0.00 | 96 | 1013.2 |
| 20260510083603 | 17 | 0 | 0.0 | 0.0 | 0.00 | 0.03 | 0.00 | 96 | 1013.2 |
| 20260510083203 | 17 | 0 | 0.0 | 0.0 | 0.00 | 0.05 | 0.00 | 96 | 1013.2 |
| 20260510082803 | 17 | 0 | 0.0 | 0.0 | 0.00 | 0.08 | 0.00 | 96 | 1013.2 |
| 20260510082403 | 17 | 0 | 0.0 | 0.0 | 0.00 | 0.08 | 0.00 | 96 | 1013.2 |
| 20260510082003 | 17 | 0 | 0.0 | 0.0 | 0.00 | 0.10 | 0.00 | 96 | 1013.2 |
| 20260510081624 | 17 | 0 | 0.0 | 0.0 | 0.00 | 0.10 | 0.00 | 96 | 1013.1 |
| 20260510081203 | 17 | 0 | 0.0 | 0.0 | 0.00 | 0.13 | 0.00 | 96 | 1013.1 |
| 20260510080803 | 17 | 0 | 0.0 | 0.0 | 0.00 | 0.13 | 0.00 | 96 | 1013.1 |
| 20260510080403 | 17 | 0 | 0.0 | 0.0 | 0.00 | 0.13 | 0.00 | 96 | 1013.1 |
| 20260510080003 | 17 | 0 | 0.0 | 0.0 | 0.00 | 0.13 | 0.00 | 96 | 1013.1 |
| 20260510075603 | 17 | 0 | 0.0 | 0.0 | 0.00 | 0.13 | 0.00 | 95 | 1013.1 |
| 20260510075203 | 17 | 0 | 0.0 | 0.0 | 0.00 | 0.13 | 0.00 | 95 | 1013.1 |
| 20260510074803 | 17 | 0 | 0.0 | 0.0 | 0.00 | 0.13 | 0.00 | 95 | 1013.0 |
| 20260510074403 | 17 | 0 | 0.0 | 0.0 | 0.00 | 0.13 | 0.00 | 96 | 1013.1 |
| 20260510074003 | 17 | 0 | 0.0 | 0.0 | 0.00 | 0.13 | 0.00 | 96 | 1013.1 |
| 20260510073624 | 17 | 0 | 0.0 | 0.0 | 0.00 | 0.13 | 0.00 | 95 | 1013.1 |
| 20260510073203 | 17 | 0 | 0.0 | 0.0 | 0.00 | 0.13 | 0.00 | 95 | 1013.1 |
| 20260510072803 | 17 | 0 | 0.0 | 0.0 | 0.00 | 0.13 | 0.00 | 95 | 1013.1 |
| 20260510072403 | 17 | 0 | 0.0 | 0.0 | 0.00 | 0.13 | 0.00 | 95 | 1013.2 |
| 20260510072003 | 17 | 0 | 0.0 | 0.0 | 0.00 | 0.13 | 0.00 | 95 | 1013.2 |
| 20260510071624 | 17 | 0 | 0.0 | 0.0 | 0.00 | 0.13 | 0.00 | 95 | 1013.2 |
| 20260510071203 | 17 | 0 | 0.0 | 0.0 | 0.00 | 0.13 | 0.00 | 95 | 1013.2 |
| 20260510070824 | 17 | 0 | 0.0 | 0.0 | 0.00 | 0.13 | 0.00 | 96 | 1013.2 |
| 20260510070403 | 17 | 0 | 0.0 | 0.0 | 0.00 | 0.13 | 0.00 | 96 | 1013.2 |
| 20260510070003 | 17 | 0 | 0.0 | 0.0 | 0.00 | 0.13 | 0.00 | 95 | 1013.2 |
| 20260510065603 | 17 | 0 | 0.0 | 0.0 | 0.00 | 0.13 | 0.00 | 95 | 1013.2 |
| 20260510065203 | 17 | 0 | 0.0 | 0.0 | 0.00 | 0.13 | 0.00 | 95 | 1013.3 |
| 20260510064803 | 17 | 0 | 0.0 | 0.0 | 0.00 | 0.13 | 0.00 | 95 | 1013.3 |
| 20260510064424 | 17 | 0 | 0.0 | 0.0 | 0.00 | 0.13 | 0.00 | 95 | 1013.4 |
| 20260510064003 | 17 | 0 | 0.0 | 0.0 | 0.00 | 0.13 | 0.00 | 95 | 1013.5 |
| 20260510063603 | 17 | 0 | 0.0 | 0.0 | 0.00 | 0.13 | 0.00 | 95 | 1013.4 |
| 20260510063203 | 17 | 0 | 0.0 | 0.0 | 0.00 | 0.13 | 0.00 | 95 | 1013.5 |
| 20260510062803 | 17 | 0 | 0.0 | 0.0 | 0.00 | 0.13 | 0.00 | 95 | 1013.6 |
| 20260510062424 | 17 | 0 | 0.0 | 0.0 | 0.00 | 0.13 | 0.00 | 95 | 1013.7 |
| 20260510062003 | 17 | 0 | 0.0 | 0.0 | 0.00 | 0.13 | 0.00 | 95 | 1013.7 |
| 20260510061603 | 17 | 0 | 0.0 | 0.0 | 0.00 | 0.13 | 0.00 | 95 | 1013.7 |
| 20260510061203 | 16 | 0 | 0.0 | 0.0 | 0.00 | 0.13 | 0.00 | 95 | 1013.7 |
| 20260510060803 | 16 | 0 | 0.0 | 0.0 | 0.00 | 0.13 | 0.00 | 95 | 1013.7 |
| 20260510060403 | 16 | 0 | 0.0 | 0.0 | 0.00 | 0.13 | 0.00 | 95 | 1013.6 |
| 20260510060003 | 16 | 0 | 0.0 | 0.0 | 0.00 | 0.13 | 0.00 | 95 | 1013.6 |
| 20260510055603 | 16 | 0 | 0.0 | 0.0 | 0.00 | 0.13 | 0.00 | 95 | 1013.6 |
| 20260510055224 | 16 | 0 | 0.0 | 0.0 | 0.00 | 0.13 | 0.00 | 95 | 1013.7 |
| 20260510054803 | 16 | 0 | 0.0 | 0.0 | 0.00 | 0.13 | 0.00 | 95 | 1013.6 |
| 20260510054403 | 16 | 0 | 0.0 | 0.0 | 0.00 | 0.13 | 0.00 | 95 | 1013.7 |
| 20260510054024 | 16 | 0 | 0.0 | 0.0 | 0.00 | 0.13 | 0.00 | 95 | 1013.8 |
| 20260510053603 | 16 | 0 | 0.0 | 0.0 | 0.00 | 0.13 | 0.00 | 95 | 1013.7 |
| 20260510053224 | 16 | 0 | 0.0 | 0.0 | 0.00 | 0.13 | 0.00 | 95 | 1013.8 |
| 20260510052803 | 16 | 0 | 0.0 | 0.0 | 0.00 | 0.13 | 0.00 | 95 | 1013.8 |
| 20260510052424 | 16 | 0 | 0.0 | 0.0 | 0.00 | 0.13 | 0.00 | 95 | 1013.8 |
| 20260510052003 | 16 | 0 | 0.0 | 0.0 | 0.00 | 0.13 | 0.00 | 95 | 1013.9 |
| 20260510051603 | 16 | 0 | 0.0 | 0.0 | 0.00 | 0.13 | 0.00 | 95 | 1013.8 |
| 20260510051203 | 16 | 0 | 0.0 | 0.0 | 0.00 | 0.13 | 0.00 | 95 | 1013.7 |
| 20260510050803 | 16 | 0 | 0.0 | 0.0 | 0.00 | 0.13 | 0.00 | 95 | 1013.8 |
| 20260510050403 | 16 | 0 | 0.0 | 0.0 | 0.00 | 0.13 | 0.00 | 95 | 1013.8 |
| 20260510050003 | 16 | 0 | 0.0 | 0.0 | 0.00 | 0.13 | 0.00 | 95 | 1013.8 |
| 20260510045603 | 16 | 0 | 0.0 | 0.0 | 0.00 | 0.13 | 0.13 | 95 | 1013.8 |
| 20260510045203 | 16 | 0 | 0.0 | 0.0 | 0.00 | 0.13 | 0.13 | 95 | 1013.9 |
| 20260510044803 | 16 | 0 | 0.0 | 0.0 | 0.00 | 0.13 | 0.13 | 95 | 1013.8 |
| 20260510044403 | 16 | 0 | 0.0 | 0.0 | 0.00 | 0.13 | 0.13 | 95 | 1013.8 |
| 20260510044003 | 16 | 0 | 0.0 | 0.0 | 0.00 | 0.13 | 0.13 | 94 | 1013.7 |
| 20260510043603 | 16 | 0 | 0.0 | 0.0 | 0.00 | 0.13 | 0.13 | 94 | 1013.7 |
| 20260510043203 | 16 | 0 | 0.0 | 0.0 | 0.00 | 0.13 | 0.13 | 94 | 1013.8 |
| 20260510042803 | 16 | 0 | 0.0 | 0.0 | 0.00 | 0.13 | 0.13 | 94 | 1013.8 |
| 20260510042403 | 17 | 0 | 0.0 | 0.0 | 0.00 | 0.13 | 0.13 | 94 | 1013.8 |
| 20260510042003 | 17 | 0 | 0.0 | 0.0 | 0.00 | 0.13 | 0.13 | 94 | 1013.8 |
| 20260510041603 | 17 | 0 | 0.0 | 0.0 | 0.00 | 0.13 | 0.13 | 94 | 1013.9 |
| 20260510041203 | 17 | 0 | 0.0 | 0.0 | 0.00 | 0.13 | 0.13 | 94 | 1013.9 |
| 20260510040803 | 17 | 0 | 0.0 | 0.0 | 0.00 | 0.13 | 0.13 | 94 | 1013.9 |
| 20260510040403 | 17 | 0 | 0.0 | 0.0 | 0.00 | 0.13 | 0.13 | 94 | 1013.9 |
| 20260510040003 | 17 | 0 | 0.0 | 0.0 | 0.00 | 0.13 | 0.13 | 94 | 1013.9 |
| 20260510035603 | 17 | 0 | 0.0 | 0.0 | 0.00 | 0.13 | 0.13 | 94 | 1013.9 |
| 20260510035203 | 17 | 0 | 0.0 | 0.0 | 0.00 | 0.13 | 0.13 | 94 | 1013.9 |
| 20260510034803 | 17 | 0 | 0.0 | 0.0 | 0.00 | 0.13 | 0.13 | 94 | 1014.0 |
| 20260510034403 | 17 | 0 | 0.0 | 0.0 | 0.00 | 0.13 | 0.13 | 94 | 1014.0 |
| 20260510034003 | 17 | 0 | 0.0 | 0.0 | 0.00 | 0.13 | 0.13 | 94 | 1014.0 |
| 20260510033624 | 17 | 0 | 0.0 | 0.0 | 0.00 | 0.13 | 0.13 | 94 | 1013.9 |
| 20260510033203 | 17 | 0 | 0.0 | 0.0 | 0.00 | 0.13 | 0.13 | 94 | 1013.9 |
| 20260510032824 | 17 | 0 | 0.0 | 0.0 | 0.00 | 0.13 | 0.13 | 94 | 1014.0 |
| 20260510032403 | 17 | 0 | 0.0 | 0.0 | 0.00 | 0.13 | 0.13 | 94 | 1014.0 |
| 20260510032003 | 18 | 0 | 0.0 | 0.0 | 0.00 | 0.13 | 0.13 | 94 | 1014.2 |
| 20260510031624 | 18 | 0 | 0.0 | 0.0 | 0.00 | 0.13 | 0.13 | 94 | 1014.2 |
| 20260510031203 | 18 | 0 | 0.0 | 0.0 | 0.00 | 0.13 | 0.13 | 94 | 1014.1 |
| 20260510030803 | 18 | 0 | 0.0 | 0.0 | 0.00 | 0.13 | 0.13 | 94 | 1014.2 |
| 20260510030403 | 18 | 0 | 0.0 | 0.0 | 0.00 | 0.13 | 0.13 | 94 | 1013.9 |
| 20260510030003 | 18 | 0 | 0.0 | 0.0 | 0.00 | 0.13 | 0.13 | 94 | 1013.8 |
| 20260510025603 | 18 | 0 | 0.0 | 0.0 | 0.00 | 0.13 | 0.13 | 94 | 1013.8 |
| 20260510025203 | 18 | 0 | 0.0 | 0.0 | 0.00 | 0.13 | 0.13 | 94 | 1013.8 |
| 20260510024803 | 18 | 0 | 0.0 | 0.0 | 0.00 | 0.13 | 0.13 | 94 | 1013.9 |
| 20260510024403 | 18 | 0 | 0.0 | 0.0 | 0.00 | 0.13 | 0.13 | 94 | 1013.8 |
| 20260510024003 | 18 | 0 | 0.0 | 0.0 | 0.00 | 0.13 | 0.13 | 94 | 1013.8 |
| 20260510023603 | 18 | 0 | 0.0 | 0.0 | 0.00 | 0.13 | 0.13 | 94 | 1013.8 |
| 20260510023203 | 18 | 0 | 0.0 | 0.0 | 0.00 | 0.13 | 0.13 | 94 | 1013.8 |
| 20260510022803 | 18 | 0 | 0.0 | 0.0 | 0.00 | 0.13 | 0.13 | 94 | 1013.8 |
| 20260510022403 | 18 | 0 | 0.0 | 0.0 | 0.00 | 0.13 | 0.13 | 94 | 1013.7 |
| 20260510022003 | 18 | 0 | 0.0 | 0.0 | 0.00 | 0.13 | 0.13 | 94 | 1013.7 |
| 20260510021603 | 18 | 0 | 0.0 | 0.0 | 0.00 | 0.13 | 0.13 | 94 | 1013.6 |
| 20260510021203 | 18 | 0 | 0.0 | 0.0 | 0.00 | 0.13 | 0.13 | 94 | 1013.5 |
| 20260510020803 | 18 | 0 | 0.0 | 0.0 | 0.00 | 0.13 | 0.13 | 94 | 1013.3 |
| 20260510020424 | 18 | 0 | 0.0 | 0.0 | 0.00 | 0.13 | 0.13 | 94 | 1013.3 |
| 20260510020024 | 18 | 0 | 0.0 | 0.0 | 0.00 | 0.13 | 0.13 | 94 | 1013.3 |
| 20260510015603 | 18 | 0 | 0.0 | 0.0 | 0.00 | 0.13 | 0.13 | 94 | 1013.2 |
| 20260510015203 | 18 | 0 | 0.0 | 0.0 | 0.00 | 0.13 | 0.13 | 93 | 1013.2 |
| 20260510014803 | 18 | 0 | 0.0 | 0.0 | 0.00 | 0.13 | 0.13 | 93 | 1013.2 |
| 20260510014403 | 18 | 0 | 0.0 | 0.0 | 0.00 | 0.13 | 0.13 | 93 | 1013.0 |
| 20260510014003 | 18 | 0 | 0.0 | 0.0 | 0.00 | 0.13 | 0.13 | 93 | 1012.9 |
| 20260510013603 | 18 | 0 | 0.0 | 0.0 | 0.00 | 0.13 | 0.13 | 93 | 1013.0 |
| 20260510013203 | 18 | 0 | 0.0 | 0.0 | 0.00 | 0.13 | 0.13 | 93 | 1012.7 |
| 20260510012803 | 19 | 0 | 0.0 | 0.0 | 0.00 | 0.13 | 0.13 | 93 | 1012.6 |
| 20260510012403 | 19 | 0 | 0.0 | 0.0 | 0.00 | 0.13 | 0.13 | 93 | 1012.6 |
| 20260510012003 | 19 | 0 | 0.0 | 0.0 | 0.00 | 0.13 | 0.13 | 93 | 1012.6 |
| 20260510011603 | 19 | 0 | 0.0 | 0.0 | 0.00 | 0.13 | 0.13 | 92 | 1012.5 |
| 20260510011224 | 19 | 0 | 0.0 | 0.0 | 0.00 | 0.13 | 0.13 | 92 | 1012.4 |
| 20260510010803 | 19 | 0 | 0.0 | 0.0 | 0.00 | 0.13 | 0.13 | 92 | 1012.4 |
| 20260510010403 | 19 | 0 | 0.0 | 0.0 | 0.00 | 0.13 | 0.13 | 92 | 1012.4 |
| 20260510010003 | 19 | 0 | 0.0 | 0.0 | 0.00 | 0.13 | 0.13 | 92 | 1012.3 |
| 20260510005603 | 19 | 0 | 0.0 | 0.0 | 0.00 | 0.13 | 0.13 | 92 | 1012.3 |
| 20260510005203 | 20 | 0 | 0.0 | 0.0 | 0.00 | 0.13 | 0.13 | 91 | 1012.2 |
| 20260510004804 | 20 | 0 | 0.0 | 0.0 | 0.00 | 0.13 | 0.13 | 92 | 1012.2 |
| 20260510004425 | 20 | 0 | 0.0 | 0.0 | 0.00 | 0.13 | 0.13 | 91 | 1012.0 |
| 20260510004004 | 20 | 0 | 0.0 | 0.0 | 0.00 | 0.13 | 0.13 | 91 | 1012.0 |
| 20260510003604 | 20 | 0 | 0.0 | 0.0 | 0.00 | 0.13 | 0.13 | 91 | 1012.1 |
| 20260510003225 | 20 | 0 | 0.0 | 0.0 | 0.00 | 0.13 | 0.13 | 90 | 1012.1 |
| 20260510002804 | 20 | 0 | 0.0 | 0.0 | 0.00 | 0.13 | 0.13 | 90 | 1012.1 |
| 20260510002404 | 20 | 0 | 0.0 | 0.0 | 0.00 | 0.13 | 0.13 | 90 | 1012.2 |
| 20260510002004 | 20 | 0 | 0.0 | 0.0 | 0.00 | 0.13 | 0.13 | 90 | 1012.1 |
| 20260510001625 | 20 | 0 | 0.0 | 0.0 | 0.00 | 0.13 | 0.13 | 90 | 1012.1 |
| 20260510001204 | 20 | 0 | 0.0 | 0.0 | 0.00 | 0.13 | 0.13 | 90 | 1012.0 |
| 20260510000804 | 20 | 0 | 0.0 | 0.0 | 0.00 | 0.13 | 0.13 | 90 | 1012.0 |
| 20260510000404 | 20 | 0 | 0.0 | 0.0 | 0.00 | 0.13 | 0.13 | 89 | 1012.0 |
| 20260510000004 | 20 | 0 | 0.0 | 0.0 | 0.00 | 0.13 | 0.13 | 89 | 1011.8 |
| 20260509235604 | 20 | 0 | 0.0 | 0.0 | 0.00 | 0.13 | 0.13 | 89 | 1011.7 |
| 20260509235204 | 20 | 0 | 0.0 | 0.0 | 0.00 | 0.13 | 0.13 | 89 | 1011.7 |
| 20260509234825 | 20 | 351 | 0.0 | 1.6 | 0.00 | 0.13 | 0.13 | 89 | 1011.5 |
| 20260509234404 | 21 | 351 | 0.0 | 1.6 | 0.00 | 0.13 | 0.13 | 89 | 1011.5 |
| 20260509234004 | 21 | 351 | 0.0 | 1.6 | 0.00 | 0.13 | 0.13 | 89 | 1011.5 |
| 20260509233604 | 21 | 351 | 0.0 | 1.6 | 0.00 | 0.13 | 0.13 | 88 | 1011.4 |
| 20260509233204 | 21 | 351 | 0.0 | 1.6 | 0.00 | 0.13 | 0.13 | 88 | 1011.5 |
| 20260509232804 | 21 | 351 | 0.0 | 1.6 | 0.00 | 0.13 | 0.13 | 87 | 1011.4 |
| 20260509232404 | 21 | 351 | 0.0 | 1.6 | 0.00 | 0.13 | 0.13 | 88 | 1011.2 |
| 20260509232004 | 21 | 351 | 0.0 | 1.6 | 0.00 | 0.13 | 0.13 | 89 | 1011.1 |
| 20260509231604 | 21 | 351 | 0.0 | 1.6 | 0.00 | 0.13 | 0.13 | 88 | 1011.2 |
| 20260509231204 | 21 | 351 | 0.0 | 1.6 | 0.00 | 0.13 | 0.13 | 88 | 1011.4 |
| 20260509230804 | 21 | 0 | 0.0 | 0.0 | 0.00 | 0.13 | 0.13 | 88 | 1011.4 |
| 20260509230404 | 21 | 0 | 0.0 | 0.0 | 0.00 | 0.13 | 0.13 | 87 | 1011.3 |
| 20260509230004 | 21 | 0 | 0.0 | 0.0 | 0.00 | 0.13 | 0.13 | 86 | 1011.2 |
| 20260509225604 | 21 | 0 | 0.0 | 0.0 | 0.00 | 0.13 | 0.13 | 86 | 1011.2 |
| 20260509225204 | 21 | 0 | 0.0 | 0.0 | 0.00 | 0.13 | 0.13 | 86 | 1011.1 |
| 20260509224804 | 21 | 0 | 0.0 | 0.0 | 0.00 | 0.13 | 0.13 | 85 | 1011.0 |
| 20260509224425 | 21 | 0 | 0.0 | 1.6 | 0.00 | 0.13 | 0.13 | 86 | 1010.9 |
| 20260509224004 | 21 | 0 | 0.0 | 1.6 | 0.00 | 0.13 | 0.13 | 86 | 1010.9 |
| 20260509223604 | 21 | 0 | 0.0 | 1.6 | 0.00 | 0.13 | 0.13 | 85 | 1010.9 |
| 20260509223204 | 21 | 0 | 0.0 | 0.0 | 0.00 | 0.13 | 0.13 | 85 | 1010.8 |
| 20260509222804 | 21 | 0 | 0.0 | 0.0 | 0.00 | 0.13 | 0.13 | 86 | 1011.0 |
| 20260509222425 | 21 | 0 | 0.0 | 0.0 | 0.00 | 0.13 | 0.13 | 85 | 1010.8 |
| 20260509222025 | 21 | 0 | 0.0 | 1.6 | 0.00 | 0.13 | 0.13 | 85 | 1010.8 |
| 20260509221604 | 22 | 0 | 0.0 | 1.6 | 0.00 | 0.13 | 0.13 | 85 | 1010.8 |
| 20260509221225 | 21 | 0 | 0.0 | 0.0 | 0.00 | 0.13 | 0.13 | 85 | 1010.7 |
| 20260509220804 | 21 | 0 | 0.0 | 0.0 | 0.00 | 0.13 | 0.13 | 85 | 1010.7 |
| 20260509220404 | 22 | 351 | 0.0 | 1.6 | 0.00 | 0.13 | 0.13 | 85 | 1010.8 |
| 20260509220004 | 22 | 351 | 0.0 | 1.6 | 0.00 | 0.13 | 0.13 | 84 | 1010.8 |
| 20260509215604 | 21 | 0 | 0.0 | 1.6 | 0.00 | 0.13 | 0.13 | 84 | 1010.8 |
| 20260509215204 | 22 | 351 | 0.0 | 1.6 | 0.00 | 0.13 | 0.13 | 85 | 1010.8 |
| 20260509214804 | 22 | 351 | 0.0 | 1.6 | 0.00 | 0.13 | 0.13 | 83 | 1010.6 |